Погода в Новом Киструсе

Россия / Рязанская область     54°27′52″N   40°34′30″E
темп.,
°C
ветер,
м/с
пор.,
м/с
влажн.,
%
обл.,
%
осадки,
мм/ч
давл.,
гПа
погр.,
м
24 июня, чт
чт2400:00+22с11840 0.0 102111
03:00+21ссв11864 0.0 102111
06:00+23ссз01841 0.0 102051
09:00+27вюв21671 0.0 1020406
12:00+30ююв11555 0.0 1020851
15:00+31ю21505 0.0 10191179
18:00+30юз12615 0.0 1018543
21:00+23ю510760 0.0 1018206
25 июня, пт
пт2500:00+19зюз36770 0.1 101995
03:00+20зсз11861 0.1 101811
06:00+22ю12834 0.0 101871
09:00+26ююз22713 0.0 1018409
12:00+29ююз33581 0.0 1017884
15:00+30ююз23510 0.0 10171154
18:00+30ююз236419 0.0 1015505
21:00+24зюз22780 0.1 101511
26 июня, сб
сб2600:00+22зюз11805 0.0 101511
03:00+21ююз22855 0.1 101415
06:00+23ююз12835 0.0 101586
09:00+27ююз237034 0.0 1015440
12:00+29зюз236093 0.8 1014878
15:00+31юз2351100 0.8 10131739
18:00+30зюз23645 0.0 1013487
21:00+24юз227339 0.0 101211
27 июня, вс
вс2700:00+22ююз228586 0.1 101318
03:00+20зсз119070 0.6 101311
06:00+22ю228637 0.2 101371
09:00+27ююз236973 0.2 1013420
12:00+30юз335890 0.0 10131085
15:00+30юз225399 0.0 10131366
18:00+30ююз236498 0.0 1012666
21:00+25ю22715 0.0 101211
28 июня, пн
пн2800:00+22ю118676 2.1 101311
03:00+21юв1188100 2.5 101211
06:00+23юв2286100 0.0 101269
09:00+27ююв33715 0.0 1012400
12:00+30ююв225859 0.0 10121074
15:00+31юв22536 0.2 10111372
18:00+31всв015473 0.0 10101099
21:00+26вюв227433 0.0 100917